Showing default

ION SCV-011, 56957

Orbit data source: Space-Track

ION SCV-011, 56957 is a payload satellite owned by D-ORBIT (IT) in SSO that was launched on Mon, 12 Jun 2023 UTC via an FALCON 9 launch vehicle from the Air Force Western Test Range (AFWTR). Payload-class satellites include a variety of spacecraft equipped with specific instruments for various scientific and technological missions. These include communications satellites like Starlink; space stations such as the ISS; scientific satellites like the Hubble; Earth observation satellites from companies like Planet Labs, Umbra, and HawkEye 360; GPS; miniature CubeSats for education and research; and military/defense satellites.

Loading next visibility...
Identifier
56957, 2023-084AB
Orbit
SSO
Last TLE update
7 hours ago
Origin
Manufacturer
D-ORBIT
Mission
Operational Commercial Technology
Bus & Motor
ION-SC, PM200
Mass
220 kg wet, 150 kg dry
Launch date (UTC)
2023-06-12 (2 years ago)
Launch vehicle
FALCON 9
Launch site
Air Force Western Test Range (AFWTR)
Object type
Payload
Rocket body
Debris
Shape & HBR
Box, 0.4 m
Radar Cross Section
0.240 m², Medium (>0.1 m² and < 1m²)

Expand to show TLE details & history

TLE from 7 hours ago
0 ION SCV-011
1 56957U 23084AB  25186.42762905  .00004992  00000-0  20983-3 0  9995
2 56957  98.1127 338.3055 0008663 151.9474 208.2230 15.23915748112919
Epoch: 2025-07-05T10:15Z
TLE epoch observation values (Epoch: 2025-07-05T10:15:47.149Z)
Latitude
-0.00001°
Longitude
-99.30678°
Altitude
502.366 km
Speed
7.61 km/s
True Right ascension
22h 33m 13s
True Declination
0° 00' 00"
Sunlit
Object was in full shadow at epoch
Visualization orbit readout
Latitude
81.91962°
Longitude
174.11018°
Altitude
504.674 km
Speed
7.62 km/s
Apparent Right ascension
16h 51m 48s
Apparent Declination
24° 52' 57"
Sunlit
Object is in daylight
Visualization observer readout
Local Sidereal Time
04:52:47
Azimuth
0.244° NNE
Elevation
-25.201°
Doppler factor
1
Orbital elements
Apogee altitude
496.986 km
Perigee altitude
485.085 km
Semi-major axis
6,869.172 km
Eccentricity
0.00087
Inclination
98.1127°
RAAN
338.3055°
Arg. of periapsis
151.9474°
True anomaly
Unknown
Mean anomaly
208.223°
Eccentric anomaly
Unknown
Mean motion
3.8123 °/min
Orbital period
94.43 mins
BSTAR
0.00020983
Loading maneuver chart data...
Loading SW <> Apogee altitude chart data...
Loading historical data...
Loading historical data...
Loading historical data...
Loading historical data...
Loading historical data...
Loading historical data...
Loading historical data...

ION SCV-011 Visibility forecast

Observer location: undefined°, undefined°

Span
Click to sort rows by Start time (UTC) header in descending order
Start Az.
Max El. time (UTC)
Max El. Az.
Max El.
End time (UTC)
End Az.
5 mins2025-07-05 23:26:29.890Z349.224° N2025-07-05 23:28:29.890Z289.391° WNW34.628°2025-07-05 23:31:29.890Z216.943° SW
5 mins2025-07-06 10:02:29.890Z156.139° SSE2025-07-06 10:04:29.890Z111.118° ESE42.749°2025-07-06 10:07:29.890Z353.264° N
|